Location: Newark
(35.8833°N, 14.5000°E)
Time: 10:18:22
(UTC+00:00)

BEESAT - Pass Details

Date: 20 November 2019
Orbit: 701 x 709 km, 98.6° (Epoch: 14 December)

Event Time Altitude Azimuth Distance (km) Brightness Sun altitude
Rises 16:26:27 0° 14° (NNE) 3,095 ? -7.3°
Reaches altitude 10° 16:28:43 10° 15° (NNE) 2,174 ? -7.8°
Maximum altitude 16:33:29 81° 104° (ESE) 716 ? -8.7°
Drops below altitude 10° 16:38:14 10° 191° (S) 2,164 ? -9.6°
Sets 16:40:29 0° 192° (SSW) 3,080 ? -10.0°
